Location: Unspecified
(42.2730°N, 83.7130°W)
Time: 14:59:20
(UTC+00:00)

Cosmos 1980 Rocket - Pass Details

Date: 14 December 2025
Orbit: 830 x 847 km, 71.0° (Epoch: 17 January)

Event Time Altitude Azimuth Distance (km) Brightness Sun altitude
Rises 22:24:13 0° 183° (S) 3,384 5.8 -4.2°
Reaches altitude 10° 22:26:45 10° 177° (S) 2,452 5.0 -4.6°
Maximum altitude 22:32:03 43° 107° (ESE) 1,158 2.7 -5.5°
Drops below altitude 10° 22:37:20 10° 37° (NE) 2,456 4.1 -6.4°
Enters shadow 22:39:06 - 32° (NNE) 3,104 4.6 -6.7°
